Location: Bartlow
(52.0833°N, 0.3167°E)
Time: 17:36:53
(UTC+00:00)

Meteor 2-17 Rocket - Pass Details

Date: 27 April 2024
Orbit: 934 x 957 km, 82.5° (Epoch: 23 May)

Event Time Altitude Azimuth Distance (km) Brightness Sun altitude
Exits shadow 00:19:10 27° 125° (SE) 1,749 5.6 -23.8°
Maximum altitude 00:21:21 34° 87° (E) 1,502 5.5 -23.8°
Drops below altitude 10° 00:26:45 10° 25° (NNE) 2,668 7.8 -23.7°
Sets 00:29:26 0° 17° (NNE) 3,614 8.9 -23.6°
